Погода в Ухане

Китай     30°35′29″N   114°18′53″E
темп.,
°C
ветер,
м/с
пор.,
м/с
влажн.,
%
обл.,
%
осадки,
мм/ч
давл.,
гПа
погр.,
м
6 декабря, пн
пн623:00+14юв11290 0.0 102510
02:00+12юв11330 0.0 102411
05:00+11юв11370 0.0 102414
08:00+11в11400 0.0 102627
11:00+15всв22280 0.0 1027401
14:00+18с22210 0.0 1025755
17:00+18ссв24210 0.0 1025326
20:00+16ссв49240 0.0 1027484
7 декабря, вт
вт723:00+13ссв511284 0.0 1028407
02:00+11ссв59385 0.0 1028360
05:00+9ссв474197 0.0 1027285
08:00+9ссв4542100 0.0 1029262
11:00+11ссв3437100 0.0 1030432
14:00+14ссв3332100 0.0 1027755
17:00+14св3432100 0.0 1027759
20:00+13ссв3537100 0.0 1028350
8 декабря, ср
ср823:00+12ссв3444100 0.0 1028215
02:00+12св234780 0.0 1028183
05:00+11св2451100 0.0 1028197
08:00+11св235282 0.0 1029172
11:00+13ссв224171 0.0 1030633
14:00+15ссв213469 0.0 1027948
17:00+15сз113325 0.0 1027700
20:00+14сз233531 0.0 1028114
9 декабря, чт
чт923:00+14с233796 0.0 1028137
02:00+14сз1237100 0.0 1027174
05:00+12ссз23416 0.0 1027151
08:00+12ссз12455 0.0 1028134
11:00+15ссз22360 0.0 1028545
14:00+17сз22290 0.0 1025882
17:00+17всв11290 0.0 1024469
20:00+16в11310 0.0 102523
10 декабря, пт
пт1023:00+15в22345 0.0 102518
02:00+14всв2339100 0.0 102466
05:00+13всв254554 0.0 1024149
08:00+13в37515 0.0 1025221
11:00+17в46375 0.0 1025653
14:00+20вюв45315 0.0 10221122
17:00+20в3533100 0.0 1021920
20:00+18в253848 0.0 1022172